SCP
0 0 0 0 0 0 0 0 0 0 0 0 0 0 0 0 0 0 0 0 0 0 0 0 0 0 0 0 0 0 0 0 0 0 0 0 1 1 1 1 1 1 1
0 0 0 0 0 0 0 0 0 0 0 0 0 0 0 0 0 0 0 0 0 0 0 0 0 0 0 0 0 0 0 0 0 0 0 0 0 0 1 1 1 1 1
0 0 0 0 0 0 0 0 0 0 0 0 0 0 0 0 0 0 0 0 0 0 0 0 0 0 0 0 0 0 0 0 0 0 0 0 0 0 0 1 1 1 1
0 0 0 0 0 0 0 0 0 0 0 0 0 0 0 0 0 0 0 0 0 0 0 0 0 0 0 0 0 0 0 0 0 0 0 0 0 0 0 0 0 1 1
0 0 0 0 0 0 0 0 0 0 0 0 0 0 0 0 0 0 0 0 0 0 0 0 0 0 0 0 0 0 0 0 0 0 0 0 0 0 0 0 0 0 0
0 0 0 0 0 0 0 0 0 0 0 0 0 0 0 0 0 0 0 0 0 0 0 0 0 0 0 0 0 0 0 0 0 0 0 0 0 0 0 0 0 0 0
0 0 0 0 0 0 0 0 0 0 0 0 0 0 0 0 0 0 0 0 0 0 0 0 0 0 0 0 0 0 0 0 0 0 0 0 0 0 0 0 0 0 0
0 0 0 0 0 0 0 0 0 0 0 0 0 0 0 0 0 0 0 0 0 0 0 0 0 0 0 0 0 0 0 0 0 0 0 0 0 0 0 0 0 0 0
0 0 0 0 0 0 0 0 0 0 0 0 0 0 0 0 0 0 0 0 0 0 0 0 0 0 0 0 0 0 0 0 0 0 0 0 0 0 0 0 0 0 0
0 0 0 0 0 0 0 0 0 0 0 0 0 0 0 0 0 0 0 0 0 0 0 0 0 0 0 0 0 0 0 0 0 0 0 0 0 0 0 0 0 0 0
0 0 0 0 0 0 0 0 0 0 0 0 0 0 0 0 0 0 0 0 0 0 0 0 0 0 0 0 0 0 0 0 0 0 0 0 0 0 0 0 0 0 0
0 0 0 0 0 0 0 0 0 0 0 0 0 0 0 0 0 0 0 0 0 0 0 0 0 0 0 0 0 0 0 0 0 0 0 0 0 0 0 0 0 0 0
0 0 0 0 0 0 0 0 0 0 0 0 0 0 0 0 0 0 0 0 0 0 0 0 0 0 0 0 0 0 0 0 0 0 0 0 0 0 0 0 0 0 0
0 0 0 0 0 0 0 0 0 0 0 0 0 0 0 0 0 0 0 0 0 0 0 0 0 0 0 0 0 0 0 0 0 0 0 0 0 0 0 0 0 0 0
0 0 0 0 0 0 0 0 0 0 0 0 0 0 0 0 0 0 0 0 0 0 0 0 0 0 0 0 0 0 0 0 0 0 0 0 0 0 0 0 0 0 0
0 0 0 0 0 0 0 0 0 0 0 0 0 0 0 0 0 0 0 0 0 0 0 0 0 0 0 0 0 0 0 0 0 0 0 0 0 0 0 0 0 0 0
0 0 0 0 0 0 0 0 0 0 0 0 0 0 0 0 0 0 0 0 0 0 0 0 0 0 0 0 0 0 0 0 0 0 0 0 0 0 0 0 0 0 0
0 0 0 0 0 0 0 0 0 0 0 0 0 0 0 0 0 0 0 0 0 0 0 0 0 0 0 0 0 0 0 0 0 0 0 0 0 0 0 0 0 0 0
0 0 0 0 0 0 0 0 0 0 0 0 0 0 0 0 0 0 0 0 0 0 0 0 0 0 0 0 0 0 0 0 0 0 0 0 0 0 0 0 0 0 0
0 0 0 0 0 0 0 0 0 0 0 0 0 0 0 0 0 0 0 0 0 0 0 0 0 0 0 0 0 0 0 0 0 0 0 0 0 0 0 0 0 0 0
0 0 0 0 0 0 0 0 0 0 0 0 0 0 0 0 0 0 0 0 0 0 0 0 0 0 0 0 0 0 0 0 0 0 0 0 0 0 0 0 0 0 0
0 0 0 0 0 0 0 0 0 0 0 0 0 0 0 0 0 0 0 0 0 0 0 0 0 0 0 0 0 0 0 0 0 0 0 0 0 0 0 0 0 0 0
0 0 0 0 0 0 0 0 0 0 0 0 0 0 0 0 0 0 0 0 0 0 0 0 0 0 0 0 0 0 0 0 0 0 0 0 0 0 0 0 0 0 0
0 0 0 0 0 0 0 0 0 0 0 0 0 0 0 0 0 0 0 0 0 0 0 0 0 0 0 0 0 0 0 0 0 0 0 0 0 0 0 0 0 0 0
0 0 0 0 0 0 0 0 0 0 0 0 0 0 0 0 0 0 0 0 0 0 0 0 0 0 0 0 0 0 0 0 0 0 0 0 0 0 0 0 0 0 0
0 0 0 0 0 0 0 0 0 0 0 0 0 0 0 0 0 0 0 0 0 0 0 0 0 0 0 0 0 0 0 0 0 0 0 0 0 0 0 0 0 0 0
Wind_Speed
1 1 1 1 1 1 2 2 2 3 3 4 4 4 4 4 4 4 3 8 9 10 10 10 10 11 10 10 9 9 9 9 9 9 10 10 11 11 12 13 13 14 15
1 1 1 1 2 2 2 2 2 3 3 3 4 4 4 4 4 5 4 5 8 9 10 10 10 10 10 10 9 9 8 8 8 8 8 9 10 11 12 12 13 13 14
1 1 1 1 2 2 2 1 2 1 2 2 3 4 3 4 4 5 4 4 4 8 10 10 10 10 10 10 10 10 10 9 9 9 9 9 9 10 11 12 13 13 14
1 1 1 2 2 1 1 1 1 1 2 2 3 3 3 3 4 4 4 4 4 4 6 9 10 10 10 11 11 11 10 10 9 9 9 9 9 9 10 11 12 13 13
1 1 1 2 2 1 1 2 1 2 2 3 4 3 3 3 3 4 4 5 4 4 4 7 9 10 10 11 10 10 10 10 10 10 10 10 10 9 9 10 11 12 13
1 1 1 1 1 0 1 1 2 2 2 3 3 3 3 3 3 3 4 3 3 4 4 4 4 6 10 10 10 10 11 10 10 10 10 9 9 8 8 9 10 11 12
2 2 2 1 1 1 1 2 1 2 2 1 1 2 3 2 3 3 2 2 3 3 3 4 3 3 4 9 10 11 11 11 10 11 11 10 9 8 8 9 9 10 11
2 2 2 1 1 1 1 1 1 1 1 0 1 0 2 3 2 2 2 2 2 2 3 4 4 4 3 3 6 11 11 10 10 10 10 10 9 9 9 9 10 11 11
2 2 2 2 2 1 2 2 1 2 1 1 1 2 1 2 2 2 2 2 2 2 2 3 3 3 4 3 3 7 10 9 10 10 11 11 10 10 11 11 11 11 12
3 2 2 1 1 1 1 2 1 2 2 1 1 1 2 2 1 2 2 2 2 2 2 2 3 3 3 3 4 6 9 9 10 11 10 11 11 11 12 12 12 12 12
3 2 2 1 1 1 2 2 1 1 1 2 1 1 1 1 1 2 2 2 2 2 2 3 2 2 3 3 3 5 7 8 9 10 11 11 11 12 13 13 13 13 13
2 2 2 1 1 1 1 2 1 1 1 1 1 1 1 1 2 2 3 2 2 3 2 2 2 2 2 3 4 5 7 8 8 9 10 11 11 12 12 13 14 14 14
2 3 2 2 1 1 1 1 1 1 1 1 1 1 2 2 2 2 2 2 2 2 2 2 2 2 2 2 3 5 6 8 8 8 9 10 10 10 11 12 12 13 13
3 3 2 2 1 1 1 0 1 1 1 1 2 1 1 2 2 2 3 2 1 2 1 3 2 2 2 2 4 5 4 7 7 8 8 8 9 10 10 10 10 11 11
3 2 2 1 1 1 0 0 1 1 1 1 2 2 1 2 2 2 2 3 3 2 3 3 2 2 2 2 3 2 3 5 6 7 8 8 8 9 9 9 9 9 9
2 1 1 0 1 1 1 0 1 1 0 1 1 1 1 1 1 1 1 2 3 3 3 2 2 3 2 2 3 2 3 4 6 6 7 7 8 8 8 8 8 8 9
1 1 1 0 1 1 1 1 1 1 1 1 1 1 2 1 1 1 1 1 1 2 2 2 2 2 2 2 2 2 2 2 3 6 6 7 7 8 8 8 9 9 9
1 1 0 0 1 1 1 1 2 1 1 1 1 1 2 1 1 1 1 1 1 2 2 2 2 2 2 3 2 2 2 2 2 5 6 6 7 7 8 8 9 10 10
1 1 1 0 1 1 2 2 1 1 1 2 1 1 2 1 1 1 1 1 1 1 1 2 2 2 2 2 1 2 2 2 3 3 4 5 6 7 7 8 8 9 9
1 1 1 1 1 1 2 2 2 1 2 2 1 1 2 2 2 2 1 1 1 1 1 1 1 2 2 2 1 1 2 2 2 2 3 4 5 7 7 8 8 8 8
1 1 1 1 1 1 1 2 2 2 1 2 2 1 1 2 3 3 2 2 2 1 1 1 1 1 1 1 1 1 2 2 3 2 1 2 2 2 4 5 7 7 8
2 2 1 1 2 2 3 3 2 1 2 2 2 2 2 2 2 2 2 3 3 3 2 2 1 1 2 2 2 1 1 1 3 2 1 2 1 2 3 3 5 7 8
1 2 2 1 2 3 4 4 3 1 1 2 2 2 2 1 1 1 1 1 1 2 3 3 2 3 3 3 2 1 2 2 3 3 1 2 2 3 3 4 6 7 7
1 1 2 2 2 3 3 3 4 2 2 2 2 2 1 1 1 1 0 1 1 2 2 2 3 4 3 3 3 3 3 2 2 2 1 2 2 3 3 2 4 5 6
1 1 2 2 2 4 4 3 2 2 2 3 3 1 0 1 2 1 2 0 1 3 2 1 2 3 3 4 2 1 0 0 1 3 1 1 2 2 2 2 3 4 5
1 1 2 2 2 3 3 3 2 1 2 3 3 3 2 2 2 0 2 1 1 3 2 2 3 3 2 2 2 2 2 2 1 2 2 1 1 1 2 2 2 2 3
Wind_Direction
231 246 255 253 254 245 231 233 238 245 247 246 245 239 231 222 222 217 221 222 221 217 216 218 217 214 211 210 210 211 214 219 220 221 222 222 219 218 218 217 215 214 213
217 239 263 265 262 252 242 227 232 234 243 243 246 242 227 221 224 221 220 224 222 218 217 217 217 218 215 214 212 214 215 220 224 226 226 224 223 221 220 220 218 217 216
208 228 246 262 263 257 250 237 257 253 255 257 257 255 240 224 219 218 215 210 212 217 217 214 215 218 220 221 219 219 221 221 226 229 230 229 229 225 223 223 222 221 219
226 231 242 258 263 260 246 224 237 254 262 260 257 258 252 237 226 217 211 211 205 210 219 219 216 216 220 221 224 224 224 224 227 230 232 233 233 230 227 225 224 224 222
287 249 248 261 255 248 252 251 234 223 252 267 263 256 252 243 234 228 217 216 209 202 209 222 222 222 223 223 225 225 228 231 231 230 232 234 233 232 228 227 227 226 225
305 294 254 264 252 219 266 256 246 248 242 249 262 269 264 255 243 229 222 220 213 211 209 217 221 231 229 226 226 227 231 231 230 230 233 234 232 229 229 228 228 229 227
310 307 285 268 241 218 243 252 238 257 263 260 281 301 301 273 249 237 223 213 219 222 215 213 213 218 231 232 229 227 227 232 231 232 234 236 234 231 232 231 230 231 230
302 285 277 254 233 233 267 266 229 222 262 232 160 95 326 326 296 261 238 219 229 229 223 221 215 213 219 222 232 228 227 231 233 233 235 235 233 233 236 237 236 234 232
289 280 283 260 246 222 235 252 230 195 238 276 163 153 163 243 294 301 256 235 240 227 235 236 222 222 216 210 224 229 224 225 234 236 235 233 232 232 236 238 240 240 236
289 281 264 266 264 238 238 244 230 201 180 241 263 198 190 189 196 300 312 285 266 253 252 248 233 231 223 214 214 219 222 223 233 238 239 237 235 235 237 238 239 241 241
293 286 266 269 279 250 247 241 226 214 186 196 211 217 212 225 194 185 275 298 305 273 252 243 229 224 221 213 217 227 224 225 232 237 239 241 238 237 239 241 239 238 240
295 300 293 267 257 257 254 234 218 214 212 206 211 203 192 199 222 197 229 258 269 273 264 254 241 230 220 213 228 234 229 225 227 234 241 243 243 239 239 242 241 240 240
274 273 273 265 262 253 249 218 216 231 219 217 217 220 210 215 210 203 209 238 252 273 287 278 248 235 238 217 234 245 238 231 230 235 241 244 245 244 243 244 245 244 243
249 252 257 260 261 252 260 236 260 238 230 233 237 220 215 229 217 205 203 198 247 287 290 277 281 253 251 233 241 245 240 241 239 241 244 245 246 246 243 243 246 246 245
258 256 266 276 275 263 248 192 264 260 223 220 223 218 216 239 231 215 201 189 179 222 258 261 275 276 272 253 249 238 237 245 241 243 242 242 244 244 242 241 243 243 241
298 295 303 311 301 297 296 267 274 278 242 247 228 208 234 248 258 250 224 205 187 185 229 247 243 263 273 289 278 252 245 257 245 245 245 244 243 245 245 242 240 239 238
317 313 285 285 285 286 287 287 278 279 265 275 264 212 253 251 255 268 246 212 194 172 212 263 258 268 266 279 291 276 259 239 248 247 245 243 241 241 239 240 237 237 237
324 305 293 304 276 294 297 295 286 294 252 258 264 246 263 246 265 257 231 228 210 189 185 239 277 283 267 260 263 270 277 265 246 249 247 247 248 245 240 240 236 234 235
340 357 15 307 300 308 314 305 285 283 273 256 247 240 241 204 260 252 223 221 217 204 180 196 252 263 272 272 277 292 294 289 274 257 250 252 252 253 248 244 239 236 237
349 3 13 337 309 317 320 306 305 314 302 288 277 240 228 212 222 221 213 221 200 195 186 181 256 279 273 278 257 278 301 303 289 286 279 271 261 261 259 254 246 238 239
345 340 22 355 340 334 325 319 313 317 311 310 308 278 253 243 225 210 190 194 182 183 186 192 240 285 290 288 263 249 266 287 289 271 278 280 269 267 269 265 257 247 243
8 21 15 4 360 347 343 333 315 311 310 297 287 287 286 282 276 237 205 197 191 187 193 196 229 245 268 258 248 249 250 303 296 282 216 282 274 268 268 257 259 256 249
10 15 354 351 335 326 334 341 343 341 318 292 272 269 287 310 324 283 246 251 245 222 203 188 205 236 238 240 217 245 243 229 247 262 207 274 279 272 270 272 272 265 256
355 332 329 327 324 323 330 339 343 357 340 315 288 259 248 284 291 196 134 343 310 287 257 207 209 239 236 229 207 209 222 252 277 284 202 246 278 276 287 285 276 268 262
349 323 325 335 334 321 327 338 356 0 350 333 323 325 243 245 276 157 122 80 333 316 306 286 256 270 273 265 238 153 313 91 304 295 273 201 265 287 294 288 285 286 280
282 310 334 327 317 314 326 331 338 359 349 335 343 354 345 326 310 157 146 152 273 285 317 351 346 334 319 302 270 201 194 185 230 281 283 213 266 313 305 290 289 304 301